Location: Shenandoah County Park
(38.9356°N, 78.4524°W)
Time: 07:22:12
(UTC-05:00)

Transit 4A - All Passes

Search period start: 05 March 2024 00:00
Search period end: 15 March 2024 01:00
Orbit: 870 x 973 km, 66.8° (Epoch: 04 March)

Date Brightness Start Highest point End Pass type
(mag) Time Alt. Az. Time Alt. Az. Time Alt. Az.
05 Mar - 00:05:16 10° SW 00:11:06 42° NW 00:16:50 10° NNE night (unlit)
05 Mar - 07:23:14 10° N 07:28:11 28° NE 07:33:06 10° ESE daylight
05 Mar - 09:09:10 10° NW 09:14:42 46° WSW 09:20:12 10° S daylight
05 Mar - 22:27:59 10° S 22:33:52 47° ESE 22:39:39 10° NE night (unlit)
06 Mar - 00:15:02 10° WSW 00:20:22 30° NW 00:25:37 10° N night (unlit)
06 Mar - 07:31:59 10° NNW 07:37:27 40° NE 07:42:52 10° ESE daylight
06 Mar - 09:18:37 10° NW 09:23:35 30° WSW 09:28:34 10° SSW daylight
06 Mar - 22:36:42 10° SSW 22:42:51 70° ESE 22:48:53 10° NNE night (unlit)
07 Mar - 00:25:08 10° W 00:29:43 21° NW 00:34:15 10° N visible
07 Mar - 05:57:17 10° NNE 05:59:01 11° NE 06:00:45 10° NE visible
07 Mar - 07:40:52 10° NNW 07:46:39 59° ENE 07:52:21 10° SE daylight
07 Mar - 09:28:24 10° WNW 09:32:25 20° WSW 09:36:26 10° SSW daylight
07 Mar - 21:03:02 10° SE 21:06:19 15° ESE 21:09:32 10° ENE night (unlit)
07 Mar - 22:45:43 10° SSW 22:51:55 80° WNW 22:57:59 10° NNE night (unlit)
08 Mar - 00:35:40 10° WNW 00:39:10 15° NW 00:42:39 10° N visible
08 Mar - 06:05:06 10° N 06:08:33 16° NE 06:12:00 10° ENE visible
08 Mar - 07:49:53 10° NNW 07:55:45 87° ENE 08:01:34 10° SSE daylight
08 Mar - 09:39:08 10° W 09:41:11 12° WSW 09:43:15 10° WSW daylight
08 Mar - 21:10:24 10° SSE 21:15:07 23° ESE 21:19:46 10° NE night (unlit)
08 Mar - 22:55:00 10° SW 23:01:02 55° WNW 23:06:57 10° NNE night (unlit)
09 Mar - 00:47:04 10° NW 00:48:44 11° NW 00:50:23 10° NNW visible
09 Mar - 06:13:32 10° N 06:18:00 22° NE 06:22:25 10° E daylight
09 Mar - 07:59:01 10° NW 08:04:46 63° WSW 08:10:29 10° SSE daylight
09 Mar - 21:18:27 10° S 21:23:59 35° ESE 21:29:25 10° NE night (unlit)
09 Mar - 23:04:33 10° WSW 23:10:14 38° NW 23:15:49 10° NNE night (unlit)
10 Mar - 07:22:12 10° N 07:27:20 31° NE 07:32:25 10° ESE daylight
10 Mar - 09:08:19 10° NW 09:13:43 41° WSW 09:19:06 10° S daylight
10 Mar - 22:26:57 10° S 22:32:56 53° ESE 22:38:47 10° NE night (unlit)
11 Mar - 00:14:25 10° WSW 00:19:32 27° NW 00:24:34 10° N night (unlit)
11 Mar - 07:30:59 10° NNW 07:36:34 45° NE 07:42:06 10° SE daylight
11 Mar - 09:17:52 10° NW 09:22:35 26° WSW 09:27:20 10° SSW daylight
11 Mar - 20:55:47 10° ESE 20:56:32 10° E 20:57:18 10° E night (unlit)
11 Mar - 22:35:45 10° SSW 22:41:56 79° ESE 22:47:58 10° NNE night (unlit)
12 Mar - 00:24:38 10° W 00:28:54 19° NW 00:33:08 10° N visible
12 Mar - 05:55:50 10° NNE 05:58:15 12° NE 06:00:39 10° ENE visible
12 Mar - 07:39:55 10° NNW 07:45:44 66° ENE 07:51:30 10° SE daylight
12 Mar - 09:27:50 10° WNW 09:31:24 17° WSW 09:34:59 10° SW daylight
12 Mar - 21:01:30 10° SE 21:05:18 17° ESE 21:09:03 10° ENE night (unlit)
12 Mar - 22:44:50 10° SW 22:51:01 71° WNW 22:57:02 10° NNE night (unlit)
13 Mar - 00:35:21 10° WNW 00:38:23 14° NW 00:41:25 10° N visible
13 Mar - 06:03:56 10° N 06:07:45 17° NE 06:11:33 10° E visible
13 Mar - 07:48:58 10° NNW 07:54:48 83° WSW 08:00:37 10° SSE daylight
13 Mar - 21:09:07 10° SSE 21:14:08 26° ESE 21:19:03 10° NE visible
13 Mar - 22:54:12 10° SW 23:00:09 49° WNW 23:05:58 10° NNE night (unlit)
14 Mar - 06:12:28 10° N 06:17:09 24° NE 06:21:49 10° ESE visible
14 Mar - 07:58:09 10° NW 08:03:48 55° WSW 08:09:26 10° S daylight
14 Mar - 21:17:20 10° S 21:23:01 40° ESE 21:28:35 10° NE visible
14 Mar - 23:03:52 10° WSW 23:09:23 34° NW 23:14:48 10° NNE visible
